Location: Bernadets
(43.3537°N, 0.3167°E)
Time: 03:05:48
(UTC+00:00)

Feng Yun 1-1 Rocket - Pass Details

Date: 24 October 2021
Orbit: 830 x 933 km, 99.2° (Epoch: 27 November)

Event Time Altitude Azimuth Distance (km) Brightness Sun altitude
Rises 18:21:25 0° 157° (SSE) 3,416 7.1 -15.2°
Reaches altitude 10° 18:23:46 10° 155° (SSE) 2,497 6.4 -15.6°
Maximum altitude 18:29:17 72° 72° (ENE) 927 4.2 -16.6°
Drops below altitude 10° 18:35:01 10° 350° (N) 2,583 6.8 -17.7°
Sets 18:37:28 0° 348° (NNW) 3,542 7.6 -18.1°
